Capitol Logistics 402


KLAX
Los Angeles International Airport
Los Angeles, California, US
KSEA
Seattle-Tacoma International Airport
Seattle, Washington, US

Activity Log

Date Flight Route Aircraft Duration
08/29/2020 CPX402 TRTON2 SCTRR SNS RBL BTG HAWKZ7 B744 2h 14m
07/31/2020 CPX402 LADYJ4 CSTRO SHIMR BTG HAWKZ7 B77L 2h 12m
04/27/2020 CPX402 SCTRR SNS RBL LMT B77L 2h 49m
01/14/2020 CPX402 TRTON2 SCTRR SNS RBL BTG HAWKZ7 B744 2h 58m
10/27/2019 CPX402 TRTON2 SCTRR SNS RBL BTG HAWKZ7 B744 2h 14m
05/17/2019 CPX402 TRTON2 SCTRR SNS RBL BTG HAWKZ7 B744 2h 20m
04/15/2019 CPX402 TRTON2 SCTRR SNS RBL BTG HAWKZ7 B744 2h 18m
01/22/2019 CPX402 SUMMR1 SCTRR SNS RBL LMT HAWKZ7 B752 2h 33m

Route Details

Aircraft Information
Primary: Boeing 747-400BCF
Backup: Boeing 777-200LRF
Route Data
Distance: 831nm
Sched. Duration: 2h 08m
Avg. Duration: 2h 27m (+20m)
Times Flown: 8
Recm'd Route: TRTON2 SCTRR SNS RBL BTG HAWKZ7
Planned Altitude: 36,000ft
Origin Wx: KLAX 262053Z 21006KT 10SM FEW080 FEW160 13/M05 A3001 RMK AO2 SLP164 T01281050 58003
Dest. Wx: KSEA 262053Z 10013KT 10SM FEW050 BKN130 BKN250 06/M05 A2956 RMK AO2 SLP017 T00611050 58023
Notes:

Financial History
Total Freight: 1,246,955lbs
Average Load: 155,869lbs/flt
Fuel Used: 339,545lbs
Avg. Fuel Used: 42,443lbs/flt
Fuel Expense: $399,003
Avg. Fuel Expense: $49,875
Avg. Fuel Cost: $1.18/lbs
Total Gross Income: $1,685,775
Pilot Pay: $1,092
Total Expenses: $182,480
Total Revenue: $1,100,934
Average Revenue: $210,721.91